Home   Weather   Syracuse   Past weeks
Flag for USA

Past Weather in Syracuse, New York, USA — Yesterday and Last 2 Weeks

Now
90 °F

Broken clouds.


Feels Like: 99 °F
Forecast: 90 / 73 °F
Wind: 9 mph from West

Location: Syracuse Hancock International Airport

Current Time: Jul 19, 2019 at 2:54:06 pm

Latest Report: Jul 19, 2019 at 1:54 pm


Visibility: 10 mi

Pressure: 29.81 "Hg

Humidity: 59%

Dew Point: 74 °F

Location of SyracuseLocation

Past Weather in Syracuse — Graph

°F

Syracuse Temperature Yesterday

Maximum temperature yesterday: 88 °F (at 4:54 pm)
Minimum temperature yesterday: 65 °F (at 3:02 am)
Average temperature yesterday: 75 °F

High & Low Weather Summary for the Past Weeks

 TemperatureHumidityPressure
High92 °F (Jul 10, 3:54 pm)97% (Jul 18, 3:23 am)30.11 "Hg (Jul 18, 3:23 am)
Low54 °F (Jul 8, 5:54 am)32% (Jul 9, 2:54 pm)29.69 "Hg (Jul 11, 6:54 pm)
Average75 °F68%29.94 "Hg
* Reported Jul 4 12:54 pm — Jul 19 12:54 pm, Syracuse. Weather by CustomWeather, © 2019

Note: Actual official high and low records may vary slightly from our data, if they occured in-between our weather recording intervals... More about our weather records

Advertising

Syracuse Weather History for the Previous 24 Hours

Scroll right to see more
 ConditionsComfort  
Time TempWeatherWind HumidityBarometerVisibility
12:54 pm
Fri, Jul 19
88 °FMostly cloudy.8 mph61%29.81 "Hg10 mi
11:54 am84 °FCloudy.9 mph67%29.83 "Hg10 mi
10:54 am86 °FBroken clouds.9 mph63%29.83 "Hg10 mi
9:54 am84 °FBroken clouds.14 mph65%29.83 "Hg10 mi
8:54 am83 °FPartly sunny.10 mph65%29.82 "Hg10 mi
7:54 am81 °FScattered clouds.9 mph69%29.81 "Hg10 mi
6:54 am77 °FBroken clouds.7 mph77%29.81 "Hg10 mi
5:54 am74 °FMild.7 mph82%29.81 "Hg10 mi
4:54 am71 °FPassing clouds.3 mph90%29.81 "Hg10 mi
3:54 am70 °FPassing clouds.3 mph90%29.82 "Hg10 mi
2:54 am72 °FPassing clouds.3 mph91%29.83 "Hg10 mi
1:54 am72 °FPassing clouds.3 mph91%29.83 "Hg10 mi
12:54 am75 °FPassing clouds.3 mph82%29.84 "Hg10 mi
11:54 pm
Thu, Jul 18
77 °FPassing clouds.3 mph85%29.84 "Hg10 mi
10:54 pm77 °FPassing clouds.No wind85%29.87 "Hg10 mi
9:54 pm78 °FPassing clouds.3 mph81%29.86 "Hg10 mi
8:54 pm82 °FPassing clouds.3 mph74%29.86 "Hg10 mi
7:54 pm82 °FScattered clouds.3 mph71%29.86 "Hg10 mi
6:54 pm82 °FBroken clouds.5 mph70%29.87 "Hg10 mi
5:54 pm85 °FBroken clouds.3 mph58%29.88 "Hg10 mi
4:54 pm88 °FBroken clouds.3 mph54%29.88 "Hg10 mi
3:54 pm87 °FBroken clouds.6 mph59%29.89 "Hg10 mi
2:54 pm85 °FBroken clouds.6 mph61%29.89 "Hg10 mi
Weather by CustomWeather, © 2019

See weather overview